Regional Weather Roundup
Issued by NWS

Home | Current Version | Previous Version | Text Only | Print | Product List | Glossary On
Versions: 1 2 3 4 5 6 7 8 9 10 11 12 13 14 15 16 17 18 19 20 21 22 23 24 25 26 27 28 29 30 31 32 33 34 35 36 37 38 39 40 41 42 43 44 45 46 47 48 49 50
000
ASUS42 KTBW 311410
RWRFL
FLORIDA REGIONAL WEATHER ROUNDUP
NATIONAL WEATHER SERVICE TAMPA BAY RUSKIN FL
900 AM EST SAT JAN 31 2015

NOTE: "FAIR" INDICATES FEW OR NO CLOUDS BELOW 12,000 FEET WITH NO
SIGNIFICANT WEATHER AND/OR OBSTRUCTIONS TO VISIBILITY.


FLZ001>010-012>015-112-114-115-311500-
PANHANDLE FLORIDA

CITY           SKY/WX    TMP DP  RH WIND       PRES   REMARKS
PENSACOLA      SUNNY     41  26  55 E8        30.33R WCI  36
PENSACOLA NAS  SUNNY     46  30  53 E14       30.32R WCI  40
MILTON NAS     SUNNY     39  26  59 NE8       30.33R WCI  33
CRESTVIEW      SUNNY     38  28  67 NE3       30.35R
DUKE FIELD     FAIR      36  27  68 NE5       30.33R WCI  32
VALPARAISO     MOSUNNY   40  25  54 E13       30.33R WCI  33
MARY ESTHER    SUNNY     42  22  45 NE10      30.32R WCI  35
TRI COUNTY     FAIR      39  29  67 NE6       30.36R WCI  35
PANAMA CITY    FAIR      41  29  62 NE7       30.33R WCI  36
TYNDALL AFB    SUNNY     42  28  59 NE6       30.34R WCI  38
APALACHICOLA   SUNNY     44  30  57 NE10      30.32S WCI  39

STATION/POSITION SKY/WX   TEMP    WIND        PRES    WAVE   SWELL
                          AIR SEA DIR/SP/G            HT/PER HT/PER
                          (F)     (DEG/KT/KT) (MB)    (FT/S) (FT/S)
30.1N   87.6W              54 62   80/ 17/ 21 1025.5R   4/ 5
29.2N   88.2W              60 68  100/ 17/ 19 1025.5R   5/ 6
28.7N   86.0W              59 69   90/ 17/ 21 1025.4R   5/ 6
PANAMA CITY BEAC           42 59   70/  7/ 12 1026.8R
CAPE SAN BLAS    NOT AVBL
TOWER C                    51      70/ 18/ 20 1026.3R
28.5N   84.5W              58 67   80/ 17/ 19 1025.5R   5/ 6

$$
FLZ011-016>038-118-127-128-134-139-239-311500-
NORTH FLORIDA

CITY           SKY/WX    TMP DP  RH WIND       PRES   REMARKS
MARIANNA       SUNNY     38  30  73 NE6       30.36R WCI  33
TALLAHASSEE    MOSUNNY   44  25  47 E8        30.35R WCI  39
PERRY          SUNNY     40  31  69 NE7       30.35R WCI  36
CROSS CITY       N/A     42  32  67 NE5       30.33R WCI  39
LAKE CITY      FAIR      41  34  75 NE5       30.33R WCI  38
GAINESVILLE    SUNNY     44  34  67 N5        30.32S WCI  42
MAYPORT NAS    SUNNY     54  38  54 NE15      30.33R
JACKSONVILLE   MOSUNNY   44  38  79 NE5       30.33R WCI  42
JAX NAS        PTSUNNY   49  38  65 N8        30.34R
JAX CRAIG      SUNNY     54  38  54 NE9       30.33R
JAX CECIL      SUNNY     41  37  87 CALM      30.34R
FERNANDINA BEA FAIR      57  37  47 NE15      30.32R
ST AUGUSTINE   SUNNY     57  42  57 NE15      30.33R

STATION/POSITION SKY/WX   TEMP    WIND        PRES    WAVE   SWELL
                          AIR SEA DIR/SP/G            HT/PER HT/PER
                          (F)     (DEG/KT/KT) (MB)    (FT/S) (FT/S)
SHELL POINT                38     360/  3/  4   N/A
KEATON BEACH               42      60/  6/ 11 1027.2R
CEDAR KEY                  42      40/ 11/ 14 1026.4R
FERNANDINA                 52 55   40/  7/ 12 1026.6R
30.7N   81.3W                 56                N/A     5/ 6
MAYPORT                    53 57   50/ 16/ 18 1026.9R
31.4N   80.9W              49 54   50/ 16/ 19 1027.3R   5/ 6
ST AUGUSTINE               56      40/ 17/ 18 1026.9R

$$
FLZ040-043>046-052-053-057-058-063-144-311500-
INTERIOR CENTRAL FLORIDA

CITY           SKY/WX    TMP DP  RH WIND       PRES   REMARKS
OCALA          SUNNY     45  36  70 N5        30.31R WCI  42
THE VILLAGES     N/A     46  37  71 N6        30.21R HAZE    WCI  43
LEESBURG       MOSUNNY   50  38  63 N8        30.30R
SANFORD        MOSUNNY   55  43  63 N7        30.28R
ORLANDO EXEC   SUNNY     54  42  64 N7        30.27R
ORLANDO INTL   PTSUNNY   56  45  66 N9        30.27S
KISSIMMEE      SUNNY     54  43  66 N7        30.28R
WINTER HAVEN   MOSUNNY   55  42  61 N8        30.28R
LAKELAND       PTSUNNY   52  43  71 NE8       30.28R
BARTOW         PTSUNNY   54  41  62 NE5       30.28S
OKEECHOBEE     SUNNY     54  46  76 N7        30.25R

$$
FLZ041-047-054-059-064-141-147-311500-
EAST CENTRAL FLORIDA

CITY           SKY/WX    TMP DP  RH WIND       PRES   REMARKS
ORMOND BEACH   SUNNY     46  41  81 CALM      30.28S
DAYTONA BEACH  PTSUNNY   51  44  77 W3        30.29R
DELAND         MOSUNNY  N/A N/A N/A N7        30.30R
NEW SMYRNA BEA SUNNY     61  46  59 NE13      30.29R
JFK SPACE CTR  SUNNY     64  49  58 NE12      30.25R
TITUSVILLE     MOSUNNY   50  45  81 VRB5      30.27R
CAPE CANAVERAL SUNNY     64  50  61 NE8       30.25R
PATRICK AFB    MOSUNNY   64  52  65 E12       30.25R
MELBOURNE      MOSUNNY   55  48  77 NW5       30.26R
VERO BEACH     SUNNY     66  49  54 NE12      30.24R
FT PIERCE      SUNNY     65  51  60 NE6       30.23R
STUART         MOSUNNY   63  52  67 NW7       30.23R

STATION/POSITION SKY/WX   TEMP    WIND        PRES    WAVE   SWELL
                          AIR SEA DIR/SP/G            HT/PER HT/PER
                          (F)     (DEG/KT/KT) (MB)    (FT/S) (FT/S)
28.5N   80.2W              64 72   40/ 14/ 19 1024.1R
28.9N   78.5W              62 73   20/ 16/ 19 1024.7R   6/ 8   3/ 8
TRIDENT PIER               59 62  310/  2/  4 1025.1R
28.4N   80.5W                 62                N/A     3/ 7
27.6N   80.2W                 69                N/A     4/ 7

$$
FLZ050-056-061-142-242-148-248-149-249-151-251-155-255-
160-260-311500-
WEST CENTRAL FLORIDA

CITY           SKY/WX    TMP DP  RH WIND       PRES   REMARKS
CRYSTAL RIVER  FAIR      48  34  57 NE6       30.30S
INVERNESS      FAIR      50  36  57 NE8       30.31R
BROOKSVILLE    MOSUNNY   49  37  63 NE10      30.29S WCI  45
ZEPHYRHILLS    FAIR      45  39  81 CALM      30.29R
CLEARWATER     MOSUNNY   54  41  61 NE10      30.28R
TAMPA INTL     PTSUNNY   52  37  56 NE8       30.28R
TAMPA EXEC     MOSUNNY   52  41  66 NE6       30.29R
PLANT CITY       N/A    N/A N/A N/A MISG        N/A
MACDILL AFB    MOSUNNY   53  42  66 NE12      30.28R
PETER O KNIGHT MOSUNNY   54  41  62 NE13      30.28R
ST PETERSBURG  MOSUNNY   55  43  63 NE15      30.26R
SARASOTA       SUNNY     52  40  63 NE9       30.25R
VENICE         FAIR      54  41  62 NE12      30.27R

STATION/POSITION SKY/WX   TEMP    WIND        PRES    WAVE   SWELL
                          AIR SEA DIR/SP/G            HT/PER HT/PER
                          (F)     (DEG/KT/KT) (MB)    (FT/S) (FT/S)
CEDAR KEY                  42      40/ 11/ 14 1026.4R
28.5N   84.5W              58 67   80/ 17/ 19 1025.5R   5/ 6
27.3N   84.3W                 71                N/A     7/ 6
CLEARWATER BEACH           51 59   50/ 10/ 14 1024.8R
MIDDLE TAMPA BAY           53      70/ 16/ 19 1024.8R
VENICE                     54 63   50/ 10/ 13 1024.4R

$$
FLZ066-069-070-075>078-162-262-165-265-311500-
SOUTHWEST FLORIDA AND KEYS

CITY           SKY/WX    TMP DP  RH WIND       PRES   REMARKS
PUNTA GORDA    SUNNY     53  45  74 NE8       30.27R
FT MYERS       SUNNY     56  45  66 NE12      30.24R
SOUTHWEST INTL SUNNY     55  46  71 NE12      30.25R
NAPLES         SUNNY     58  47  66 NE13      30.23R
MARCO ISLAND   SUNNY     55  46  71 NE10      30.22R
IMMOKALEE      SUNNY    N/A N/A N/A NE8       30.25R
MARATHON       PTSUNNY   65  57  75 NE9       30.19R
KEY WEST NAS   SUNNY     66  56  70 NE13      30.20R
KEY WEST INTL  SUNNY     66  56  70 NE10G17   30.20R

STATION/POSITION SKY/WX   TEMP    WIND        PRES    WAVE   SWELL
                          AIR SEA DIR/SP/G            HT/PER HT/PER
                          (F)     (DEG/KT/KT) (MB)    (FT/S) (FT/S)
VENICE                     54 63   50/ 10/ 13 1024.4R
NAPLES                     57      50/  6/ 10 1024.0R
26.0N   85.6W              66 72   80/ 16/ 19 1023.1R   5/ 7
DRY TORTUGAS               66      80/ 16/ 18 1021.9R
NW FL BAY                  60      50/ 13/ 15 1022.1R
SAND KEY                   66      50/ 19/ 22 1022.3R
SOMBRERO KEY               65      30/ 19/ 20 1022.3R
LONG KEY                   63 65   20/ 15/ 17 1022.6R
MOLASSES REEF              65 75   10/ 14/ 16 1022.0R

$$
FLZ067-068-071>074-168-172>174-311500-
SOUTHEAST FLORIDA

CITY           SKY/WX    TMP DP  RH WIND       PRES   REMARKS
W PALM BEACH   PTSUNNY   60  52  74 NW7       30.21R
FT LAUDER-EXEC MOSUNNY   63  52  67 N3        30.21R
FT LAUDERDALE  MOSUNNY   62  53  72 NW5       30.20R
POMPANO BEACH  MOSUNNY   65  51  60 N8        30.21R
PEMBROKE PINES MOSUNNY   64  53  67 N5        30.22R
OPA LOCKA      SUNNY     64  52  64 N6        30.21R
MIAMI          MOSUNNY   65  51  60 N5        30.21R
WEST KENDALL   PTSUNNY   64  54  69 NE8       30.21R
HOMESTEAD      SUNNY     64  54  71 N9        30.20R

STATION/POSITION SKY/WX   TEMP    WIND        PRES    WAVE   SWELL
                          AIR SEA DIR/SP/G            HT/PER HT/PER
                          (F)     (DEG/KT/KT) (MB)    (FT/S) (FT/S)
PORT EVERGLADES            64     320/  4/  9 1022.5



USA.gov is the U.S. government's official web portal to all federal, state and local government web resources and services.